CZ-4C DEB

Satellite information

Favourite Embed

Satellite Type and Status

DEBRISIN ORBIT

Key statistics

Satellite CZ-4C DEB at a glance.

Uptime

5298

Days in orbit

Revolutions

≈ 13.7

Per day

Orbit

SSO

Sun Synchronous Orbit

Inclination

98.7

Latest

Satellite identification and parameters

Extended collection of information and parameters for CZ-4C DEB.

Object identification

Identified? True

Debris? True

Object name: CZ-4C DEB

International designator: 2010-059E

Object number (NORAD): 38295

Object ID (CCSDS): 38295

Country: PEOPLES REPUBLIC OF CHINA (PRC)

Current information (Y/N): Y

RCS size: SMALL

Orbital parameters

Period: 105.028 minutes

Inclination: 98.6885 deg

SMA: 7373.888 km

Apoapsis: 1193.481 km

Periapsis: 798.025 km

RAAN: 355.9807 deg

Eccentricy: 0.0268146

Argument of periapsis: 201.5947 deg

Mean anomaly: 337.3353 deg

Mean motion: 13.71064627 rev/day

Mean motion (dot): 0.00000445 rev/day2

B* drag term: 0.00041964 1/REarth

Two-line elements (TLE)

Creation date: May 4, 2025, 5:21 p.m.

Reference frame: TEME

Reference center: EARTH

Epoch: May 4, 2025, 10:18 a.m. UTC

TLE line 0: 0 CZ-4C DEB

TLE line 1: 1 38295U 10059E 25124.42928550 .00000445 00000-0 41964-3 0 9991

TLE line 2: 2 38295 98.6885 355.9807 0268146 201.5947 337.3353 13.71064627612457

Live tracking on map

Real-time ground track for satellite CZ-4C DEB.

In-orbit conjunctions

A list of the most updated potential collisions computed for object CZ-4C DEB.

Target Orbit TCA Probability of collision Miss distance Type
COSMOS 2061 LEO 2025-01-02 11:50:47 0.0002336494 528.0 (m) PAYLOAD
CZ-6A DEB LEO 2024-11-26 13:34:19 0.0001362282 952.0 (m) DEBRIS

Associated space launch

CZ-4C DEB was lifted into orbit during the mission ‘Long March 4C | Feng Yun-3B’, on board a Long March 4C space rocket.

The launch took place on Nov. 4, 2010, 6:37 p.m. from Launch Complex 7.

For more information about the launch, click the button.

Launch to space Long March 4C | Feng Yun-3B
Long March 4C | Feng Yun-3B

Agency: N/A

Status: Launch Successful

Launch date: Nov. 4, 2010, 6:37 p.m. UTC

Rocket: Long March 4C

Launch pad: Launch Complex 7

Location: Taiyuan Satellite Launch Center, People's Republic of China

...

Latest news about this satellite

There are no fresh news available about this satellite. Check back as we update our databases every day.


Newsletter sign-up

Weekly statistics, charts and insights to help you stay on top of the space industry.